Regional Weather Roundup
Issued by NWS

Home | Current Version | Previous Version | Graphics & Text | Print | Product List | Glossary On
Versions: 1 2 3 4 5 6 7 8 9 10 11 12 13 14 15 16 17 18 19 20 21 22 23 24 25 26 27 28 29 30 31 32 33 34 35 36 37 38 39 40 41 42 43 44 45 46 47 48 49
000
ASUS43 KDMX 180007
RWRIA

WEATHER ROUNDUP FOR IOWA
NATIONAL WEATHER SERVICE DES MOINES IA
600 PM CST WED DEC 17 2014

NOTE: "FAIR" INDICATES FEW OR NO CLOUDS BELOW 12,000 FEET WITH NO
SIGNIFICANT WEATHER AND/OR OBSTRUCTIONS TO VISIBILITY.

* - THESE STATIONS ARE NOT NWS STATIONS...THUS NOT UNDER NWS
QUALITY CONTROL.  THEY ALSO DO NOT REPORT WEATHER SUCH
AS PRECIPITATION OR FOG.

IAZ001>003-012>014-020>022-031>034-043>046-180100-
   NORTHWEST IOWA

CITY           SKY/WX    TMP DP  RH WIND       PRES   REMARKS
CARROLL *      CLEAR     21  18  86 NE6       30.27F WCI  14
CHEROKEE *     CLEAR     20  18  91 CALM      30.28S
DENISON *      CLEAR     21  18  86 NE6       30.24S WCI  14
LE MARS *      CLEAR     19  16  86 NE5       30.28F WCI  13
ORANGE CITY *  CLEAR     21  16  79 CALM      30.27S
SHELDON *      CLEAR     18  16  93 W5        30.27R WCI  11
SIOUX CITY     CLOUDY    25  15  66 E6        30.28S WCI  18
6HR MIN TEMP:  22; 6HR MAX TEMP:  26;

SPENCER        CLEAR     18  13  80 CALM      30.29R
6HR MIN TEMP:  18; 6HR MAX TEMP:  26;

STORM LAKE *   CLEAR     21  18  86 CALM      30.27S
$$

IAZ055>058-069>071-079>083-090>094-180100-
   SOUTHWEST IOWA

CITY           SKY/WX    TMP DP  RH WIND       PRES   REMARKS
ATLANTIC *     CLEAR     23  19  86 CALM      30.25F
AUDUBON *      CLEAR     23  16  74 NE7       30.26R WCI  15
CLARINDA *     CLOUDY    28  21  74 E3        30.27F
COUNCIL BLFS * CLOUDY    27  18  69 SE5       30.24S WCI  21
CRESTON *      CLOUDY    25  21  86 E3        30.25S
HARLAN  *      CLEAR     25  23  93 NE5       30.29S WCI  19
LAMONI         CLOUDY    27  19  72 CALM      30.26S
6HR MIN TEMP:  25; 6HR MAX TEMP:  29;

RED OAK *      CLOUDY    28  19  69 CALM      30.27R
SHENANDOAH *   CLOUDY    28  21  74 NE3       30.26F
$$

IAZ047>049-059>061-072>074-084-180100-
   CENTRAL IOWA

CITY           SKY/WX    TMP DP  RH WIND       PRES   REMARKS
AMES           CLEAR     22  15  75 NW3       30.30R
6HR MIN TEMP:  21; 6HR MAX TEMP:  27;

ANKENY *       CLEAR     21  16  79 N5        30.29F WCI  15
CHARITON *     CLEAR     25  16  68 NE5       30.27R WCI  19
DES MOINES     PTCLDY    25  15  66 N5        30.29F WCI  19
6HR MIN TEMP:  24; 6HR MAX TEMP:  30;

GRINNELL*      CLEAR     19  16  86 N6        30.29S WCI  11
KNOXVILLE *    CLEAR     25  16  68 N3        30.27S
MARSHALLTOWN   CLEAR     19  15  84 W5        30.29R WCI  12
6HR MIN TEMP:  19; 6HR MAX TEMP:  26;

PELLA *        CLEAR     23  17  80 N3        30.30F
PERRY *          N/A     23  18  80 N3        30.29F
$$

IAZ004>006-015-016-023>025-035-036-180100-
   NORTH CENTRAL IOWA

CITY           SKY/WX    TMP DP  RH WIND       PRES   REMARKS
ALGONA *       CLEAR     19  16  86 CALM      30.30R
CLARION *      CLEAR     19  18  93 N3        30.29S
ESTHERVILLE    PTCLDY    16  12  84 N5        30.27S WCI   9
6HR MIN TEMP:  15; 6HR MAX TEMP:  22;

FORT DODGE *     N/A     19  12  73 CALM      30.30R
MASON CITY     CLEAR     16  12  84 NW6       30.29S WCI   7
6HR MIN TEMP:  15; 6HR MAX TEMP:  22;

FOREST CITY *  CLEAR     19  14  79 NW3       30.27R
IOWA FALLS *   MOCLDY    22  18  86 NW3       30.30R
$$

IAZ007>011-017>019-026>030-037>042-050>054-066-180100-
   NORTHEAST IOWA

CITY           SKY/WX    TMP DP  RH WIND       PRES   REMARKS
CEDAR RAPIDS   CLEAR     19  14  81 W5        30.28S WCI  12
6HR MIN TEMP:  19; 6HR MAX TEMP:  26;

CHARLES CITY * PTCLDY    21  18  86 N5        30.28S WCI  15
CLINTON *      CLEAR     19  12  73 NW3       30.31R
DECORAH *      CLEAR     19  14  79 N6        30.26S WCI  11
DUBUQUE        CLEAR     19  14  81 NW3       30.26S
6HR MIN TEMP:  18; 6HR MAX TEMP:  24;

MONTICELLO *   CLEAR     19  18  93 CALM      30.28S
OELWEIN *      PTCLDY    19  16  86 N3        30.28R
WATERLOO       PTCLDY    20  14  77 NW3       30.29R
6HR MIN TEMP:  19; 6HR MAX TEMP:  25;

$$

IAZ064-065-067-068-078-180100-
   EAST CENTRAL IOWA

CITY           SKY/WX    TMP DP  RH WIND       PRES   REMARKS
DAVENPORT      CLEAR     22  14  71 NW6       30.30R WCI  14
6HR MIN TEMP:  21; 6HR MAX TEMP:  27;

IOWA CITY      CLEAR     22  14  71 NW5       30.32R WCI  16
6HR MIN TEMP:  22; 6HR MAX TEMP:  28;

MT. PLEASANT * CLEAR     25  18  74 CALM      30.30S
MUSCATINE *    CLEAR     23  18  80 NW5       30.32S WCI  17
QUAD CITIES    CLEAR     24  15  68 NW5       30.30R WCI  18
6HR MIN TEMP:  24; 6HR MAX TEMP:  29;

$$

IAZ062-063-075>077-085>089-095>099-180100-
   SOUTHEAST IOWA

CITY           SKY/WX    TMP DP  RH WIND       PRES   REMARKS
BURLINGTON       N/A     27  19  72 CALM      30.29R
6HR MIN TEMP:  25; 6HR MAX TEMP:  30; 6HR PCP: TRACE;

FAIRFIELD *    CLEAR     23  18  80 NW3       30.29S
FORT MADISON * CLEAR     27  21  80 CALM      30.31R
KEOKUK *       CLEAR     27  21  80 CALM      30.30S
OSKALOOSA *      N/A     22  17  84 N5        30.29F WCI  15
CENTERVILLE *    N/A     27  19  74 CALM      30.28S
OTTUMWA        CLEAR     21  16  81 NW5       30.29R WCI  15
6HR MIN TEMP:  20; 6HR MAX TEMP:  29;

WASHINGTON *   CLEAR     23  19  86 N7        30.29F WCI  15
$$

ABBREVIATIONS USED IN REMARKS
   TC - TEMPERATURES IN CELSIUS
  WCI - WIND CHILL INDEX
   HX - HEAT INDEX
  VSB - VISIBILITY
$$




USA.gov is the U.S. government's official web portal to all federal, state and local government web resources and services.